[Date Prev][Date Next][Thread Prev][Thread Next] - [Date Index][Thread Index][Author Index]
2 Line ISS Keps 12-12
- Subject: [sarex] 2 Line ISS Keps 12-12
- From: "Dr Dave Larsen PhD" <doc@xxxxxxxxxxx>
- Date: Sun, 12 Dec 2004 04:49:27 -0800
ISS
1 25544U 98067A 04347.51018272 .00015508 00000-0 12428-3 0 3469
2 25544 51.6378 135.5442 0004405 101.8642 302.9532 15.71244765346336
----
Via the sarex mailing list at AMSAT.ORG courtesy of AMSAT-NA.
To unsubscribe, send "unsubscribe sarex" to Majordomo@amsat.org
AMSAT Home